Tracking 34305 objects as of 6-Jun-2026
HD Live streaming from Space Station
objects crossing your sky now

QIANFAN-141

Track QIANFAN-141 now!
10-day predictions
QIANFAN-141 is classified as:


NORAD ID: 69087
Int'l Code: 2026-104Q
Perigee: 824.1 km
Apogee: 829.9 km
Inclination: 89.0 °
Period: 101.3 minutes
Semi major axis: 7197 km
RCS: Unknown
Launch date: May 12, 2026
Source: People's Republic of China (PRC)
Launch site: Taiyaun Space Center, China (TSC)
Your satellite tracking list
Your tracking list is empty




NASA's NSSDC Master Catalog

Two Line Element Set (TLE):
1 69087U 26104Q   26156.86314008  .00000129  00000-0  52067-4 0  9999
2 69087  88.9863 342.8967 0004008 136.2281 223.9228 14.21633544  3484
Source of the keplerian elements: AFSPC